This is the latest recevied weather packets stored in our database for station/object SP8MDH-4. If no packets are shown the sender has not sent any weather packets the latest 10 day(s).
| Time | Temp. | Humidity | Pressure | Rain* | Wind** | Luminosity | Snow |
|---|---|---|---|---|---|---|---|
| 1777797592 | 24.44° C | 27% | 1020.6 hPa | - | - | - | - |
| 1777796092 | 23.89° C | 27% | 1020.5 hPa | - | - | - | - |
| 1777794592 | 23.89° C | 27% | 1020.6 hPa | - | - | - | - |
| 1777793092 | 23.33° C | 27% | 1020.6 hPa | - | - | - | - |
| 1777791592 | 23.33° C | 27% | 1020.6 hPa | - | - | - | - |
| 1777790092 | 23.33° C | 27% | 1020.5 hPa | - | - | - | - |
| 1777788592 | 22.78° C | 26% | 1020.6 hPa | - | - | - | - |
| 1777787092 | 22.78° C | 27% | 1020.5 hPa | - | - | - | - |
| 1777785591 | 22.78° C | 26% | 1020.5 hPa | - | - | - | - |
| 1777784091 | 22.78° C | 26% | 1020.5 hPa | - | - | - | - |
| 1777782591 | 22.78° C | 26% | 1020.4 hPa | - | - | - | - |
| 1777781091 | 22.78° C | 25% | 1020.4 hPa | - | - | - | - |
| 1777779591 | 22.78° C | 25% | 1020.5 hPa | - | - | - | - |
| 1777778091 | 22.78° C | 26% | 1020.4 hPa | - | - | - | - |
| 1777776591 | 22.78° C | 26% | 1020.1 hPa | - | - | - | - |
| 1777775091 | 22.78° C | 26% | 1020.3 hPa | - | - | - | - |
| 1777773591 | 23.33° C | 26% | 1020.3 hPa | - | - | - | - |
| 1777772091 | 23.33° C | 26% | 1020.5 hPa | - | - | - | - |
| 1777770591 | 23.33° C | 26% | 1020.4 hPa | - | - | - | - |
| 1777769091 | 23.33° C | 26% | 1020.3 hPa | - | - | - | - |
| 1777767591 | 23.33° C | 26% | 1020.4 hPa | - | - | - | - |
| 1777766091 | 23.33° C | 26% | 1020.3 hPa | - | - | - | - |
| 1777764591 | 23.89° C | 26% | 1020.5 hPa | - | - | - | - |
| 1777763090 | 23.89° C | 26% | 1020.4 hPa | - | - | - | - |
| 1777761590 | 23.89° C | 26% | 1020.5 hPa | - | - | - | - |
* Rain since midnight (hover to see other rain measurements)
** Current wind speed in m/s (hover to see current wind gust speed)